Home   Weather   Gorleben   Past weeks

Flag for Germany Past Weather in Gorleben, Lower Saxony, Germany — Yesterday and Last 2 Weeks

Now
30 °F

Ice fog.


Feels Like: 25 °F
Forecast: 24 / 31 °F
Wind: 5 mph from North

Location: Fassberg

Current Time: Jan 24, 2017 at 6:38:04 pm

Latest Report: Jan 24, 2017 at 5:20 pm


Visibility: 1 mi

Pressure: 30.42 "Hg

Humidity: 93%

Dew Point: 28 °F

Location of GorlebenLocation

Past Weather in Gorleben — Graph

°F

Gorleben Temperature Yesterday

Maximum temperature yesterday: 32 °F (at 2:20 pm)
Minimum temperature yesterday: 27 °F (at 12:20 am)
Average temperature yesterday: 29 °F

High & Low Weather Summary for the Past Weeks

 TemperatureHumidityPressure
High41 °F (Jan 11, 4:40 pm)100% (Jan 13, 2:20 am)30.74 "Hg (Jan 13, 2:20 am)
Low10 °F (Jan 16, 8:20 am)69% (Jan 19, 1:20 pm)28.97 "Hg (Jan 13, 5:20 am)
Average30 °F90%30.10 "Hg
* Reported Jan 9 5:00 pm — Jan 24 5:00 pm, Gorleben, Weather by CustomWeather, © 2017

Note: Actual official high and low records may vary slightly from our data, if they occured in-between our weather recording intervals... More about our weather records

Advertising

Gorleben Weather History for the Previous 24 Hours

Scroll right to see more
 ConditionsComfort  
Time TempWeatherWind HumidityBarometerVisibility
5:00 pm
Tue, Jan 24
30 °FIce fog.5 mph93%30.42 "Hg1 mi
4:20 pm32 °FIce fog.7 mph87%30.39 "Hg2 mi
3:39 pm32 °FIce fog.6 mph87%30.39 "Hg2 mi
3:20 pm32 °FIce fog.6 mph87%30.39 "Hg3 mi
2:20 pm32 °FIce fog.8 mph87%30.39 "Hg3 mi
1:56 pm32 °FIce fog.8 mph87%30.39 "Hg2 mi
1:44 pm32 °FIce fog.8 mph87%30.39 "Hg2 mi
1:20 pm32 °FIce fog.6 mph93%30.39 "Hg2 mi
12:20 pm32 °FIce fog.7 mph93%30.39 "Hg1 mi
11:20 am32 °FIce fog.7 mph93%30.36 "Hg1 mi
10:20 am32 °FIce fog.7 mph93%30.36 "Hg1 mi
9:20 am30 °FIce fog.5 mph100%30.36 "Hg1 mi
8:45 am32 °FIce fog.5 mph93%30.33 "Hg1 mi
8:20 am32 °FIce fog.5 mph93%30.33 "Hg0 mi
7:20 am32 °FIce fog.5 mph93%30.30 "Hg0 mi
6:20 am32 °FIce fog.6 mph93%30.30 "Hg0 mi
5:20 am32 °FIce fog.6 mph93%30.30 "Hg1 mi
4:20 am32 °FIce fog.6 mph93%30.30 "Hg1 mi
3:50 am32 °FIce fog.5 mph93%30.27 "Hg1 mi
3:20 am32 °FIce fog.5 mph93%30.27 "Hg1 mi
2:20 am30 °FIce fog.3 mph93%30.27 "Hg1 mi
1:50 am30 °FIce fog.2 mph93%30.30 "Hg1 mi
1:20 am30 °FIce fog.3 mph93%30.27 "Hg1 mi
12:20 am30 °FIce fog.3 mph93%30.27 "Hg1 mi
11:20 pm
Mon, Jan 23
30 °FIce fog.3 mph93%30.30 "Hg1 mi
10:20 pm30 °FIce fog.5 mph93%30.27 "Hg1 mi
9:20 pm30 °FIce fog.5 mph93%30.27 "Hg1 mi
8:20 pm30 °FIce fog.5 mph93%30.27 "Hg1 mi
7:20 pm30 °FIce fog.6 mph93%30.27 "Hg1 mi
6:20 pm32 °FIce fog.5 mph87%30.27 "Hg1 mi
Weather by CustomWeather, © 2017

See weather overviewHow to use our weather pages